Time,TemperatureF,DewpointF,PressureIn,WindDirection,WindDirectionDegrees,WindSpeedMPH,WindSpeedGustMPH,Humidity,HourlyPrecipIn,Conditions,Clouds,dailyrainin,SolarRadiationWatts/m^2,SoftwareType,DateUTC
2013-03-16 00:03:00,53.0,51.0,-100.00,WSW,244,2.0,8.0,94,0.00,,,0.00,0.000000,,2013-03-16 10:03:00,
2013-03-16 00:12:00,53.0,51.0,-100.00,WSW,244,2.0,8.0,94,0.00,,,0.00,0.000000,,2013-03-16 10:12:00,
2013-03-16 00:42:00,53.0,50.0,-100.00,WSW,246,2.0,10.0,91,0.00,,,0.00,0.000000,,2013-03-16 10:42:00,
2013-03-16 00:53:00,53.0,50.0,-100.00,WSW,246,2.0,10.0,91,0.00,,,0.00,0.000000,,2013-03-16 10:53:00,
2013-03-16 01:03:00,53.0,50.0,-100.00,WSW,246,2.0,10.0,91,0.00,,,0.00,0.000000,,2013-03-16 11:03:00,
2013-03-16 01:12:00,53.0,50.0,-100.00,WSW,246,2.0,10.0,91,0.00,,,0.00,0.000000,,2013-03-16 11:12:00,
2013-03-16 01:21:00,53.0,50.0,-100.00,WSW,246,2.0,10.0,91,0.00,,,0.00,0.000000,,2013-03-16 11:21:00,
2013-03-16 01:43:00,53.0,50.0,-100.00,WSW,251,2.0,11.0,91,0.00,,,0.00,0.000000,,2013-03-16 11:43:00,
2013-03-16 01:52:00,53.0,50.0,-100.00,WSW,251,2.0,11.0,91,0.00,,,0.00,0.000000,,2013-03-16 11:52:00,
2013-03-16 02:02:00,53.0,50.0,-100.00,WSW,251,2.0,11.0,91,0.00,,,0.00,0.000000,,2013-03-16 12:02:00,
2013-03-16 02:12:00,53.0,50.0,-100.00,WSW,251,2.0,11.0,91,0.00,,,0.00,0.000000,,2013-03-16 12:12:00,
2013-03-16 02:21:00,53.0,50.0,-100.00,WSW,251,2.0,11.0,91,0.00,,,0.00,0.000000,,2013-03-16 12:21:00,
2013-03-16 02:43:00,52.0,51.0,-100.00,West,267,1.0,5.0,95,0.02,,,0.02,0.000000,,2013-03-16 12:43:00,
2013-03-16 02:52:00,52.0,51.0,-100.00,West,267,1.0,5.0,95,0.02,,,0.02,0.000000,,2013-03-16 12:52:00,
2013-03-16 03:02:00,52.0,51.0,-100.00,West,267,1.0,5.0,95,0.02,,,0.02,0.000000,,2013-03-16 13:02:00,
2013-03-16 03:12:00,52.0,51.0,-100.00,West,267,1.0,5.0,95,0.02,,,0.02,0.000000,,2013-03-16 13:12:00,
2013-03-16 03:21:00,52.0,51.0,-100.00,West,267,1.0,5.0,95,0.02,,,0.02,0.000000,,2013-03-16 13:21:00,
2013-03-16 03:22:00,53.0,52.0,-100.00,West,276,1.0,8.0,97,0.01,,,0.03,0.000000,,2013-03-16 13:22:00,
2013-03-16 03:42:00,53.0,52.0,-100.00,West,276,1.0,8.0,97,0.01,,,0.03,0.000000,,2013-03-16 13:42:00,
2013-03-16 03:53:00,53.0,52.0,-100.00,West,276,1.0,8.0,97,0.01,,,0.03,0.000000,,2013-03-16 13:53:00,
2013-03-16 04:02:00,53.0,52.0,-100.00,West,276,1.0,8.0,97,0.01,,,0.03,0.000000,,2013-03-16 14:02:00,
2013-03-16 04:12:00,53.0,52.0,-100.00,West,276,1.0,8.0,97,0.01,,,0.03,0.000000,,2013-03-16 14:12:00,
2013-03-16 04:42:00,52.0,51.0,-100.00,WNW,297,1.0,5.0,97,0.04,,,-99.99,0.000000,,2013-03-16 14:42:00,
2013-03-16 04:52:00,52.0,51.0,-100.00,WNW,297,1.0,5.0,97,0.04,,,-99.99,0.000000,,2013-03-16 14:52:00,
2013-03-16 05:02:00,52.0,51.0,-100.00,WNW,297,1.0,5.0,97,0.04,,,-99.99,0.000000,,2013-03-16 15:02:00,
2013-03-16 05:12:00,52.0,51.0,-100.00,WNW,297,1.0,5.0,97,0.04,,,-99.99,0.000000,,2013-03-16 15:12:00,
2013-03-16 05:21:00,52.0,51.0,-100.00,WNW,297,1.0,5.0,97,0.04,,,-99.99,0.000000,,2013-03-16 15:21:00,
2013-03-16 05:22:00,52.0,51.0,-100.00,NW,312,2.0,8.0,97,0.04,,,0.11,0.000000,,2013-03-16 15:22:00,
2013-03-16 05:44:00,52.0,51.0,-100.00,NW,312,2.0,8.0,97,0.04,,,0.11,0.000000,,2013-03-16 15:44:00,
2013-03-16 05:53:00,52.0,51.0,-100.00,NW,312,2.0,8.0,97,0.04,,,0.11,0.000000,,2013-03-16 15:53:00,
2013-03-16 06:02:00,52.0,51.0,-100.00,NW,312,2.0,8.0,97,0.04,,,0.11,0.000000,,2013-03-16 16:02:00,
2013-03-16 06:12:00,52.0,51.0,-100.00,NW,312,2.0,8.0,97,0.04,,,0.11,0.000000,,2013-03-16 16:12:00,
2013-03-16 06:22:00,51.0,50.0,-100.00,NW,317,2.0,7.0,97,0.00,,,0.11,0.000000,,2013-03-16 16:22:00,
2013-03-16 06:43:00,51.0,50.0,-100.00,NW,317,2.0,7.0,97,0.00,,,0.11,0.000000,,2013-03-16 16:43:00,
2013-03-16 06:53:00,51.0,50.0,-100.00,NW,317,2.0,7.0,97,0.00,,,0.11,0.000000,,2013-03-16 16:53:00,
2013-03-16 07:02:00,51.0,50.0,-100.00,NW,317,2.0,7.0,97,0.00,,,0.11,0.000000,,2013-03-16 17:02:00,
2013-03-16 07:12:00,51.0,50.0,-100.00,NW,317,2.0,7.0,97,0.00,,,0.11,0.000000,,2013-03-16 17:12:00,
2013-03-16 07:43:00,52.0,51.0,-100.00,NW,316,2.0,8.0,97,0.02,,,0.13,1.000000,,2013-03-16 17:43:00,
2013-03-16 07:53:00,52.0,51.0,-100.00,NW,316,2.0,8.0,97,0.02,,,0.13,1.000000,,2013-03-16 17:53:00,
2013-03-16 08:02:00,52.0,51.0,-100.00,NW,316,2.0,8.0,97,0.02,,,0.13,1.000000,,2013-03-16 18:02:00,
2013-03-16 08:12:00,52.0,51.0,-100.00,NW,316,2.0,8.0,97,0.02,,,0.13,1.000000,,2013-03-16 18:12:00,
2013-03-16 08:21:00,52.0,51.0,-100.00,NW,316,2.0,8.0,97,0.02,,,0.13,1.000000,,2013-03-16 18:21:00,
2013-03-16 08:43:00,51.0,50.0,-100.00,NW,314,2.0,8.0,97,0.01,,,0.14,12.000000,,2013-03-16 18:43:00,
2013-03-16 08:53:00,51.0,50.0,-100.00,NW,314,2.0,8.0,97,0.01,,,0.14,12.000000,,2013-03-16 18:53:00,
2013-03-16 09:02:00,51.0,50.0,-100.00,NW,314,2.0,8.0,97,0.01,,,0.14,12.000000,,2013-03-16 19:02:00,
2013-03-16 09:12:00,51.0,50.0,-100.00,NW,314,2.0,8.0,97,0.01,,,0.14,12.000000,,2013-03-16 19:12:00,
2013-03-16 09:21:00,51.0,50.0,-100.00,NW,314,2.0,8.0,97,0.01,,,0.14,12.000000,,2013-03-16 19:21:00,
2013-03-16 09:42:00,51.0,50.0,-100.00,NW,309,2.0,8.0,97,0.00,,,0.14,85.000000,,2013-03-16 19:42:00,
2013-03-16 09:52:00,51.0,50.0,-100.00,NW,309,2.0,8.0,97,0.00,,,0.14,85.000000,,2013-03-16 19:52:00,
2013-03-16 10:02:00,51.0,50.0,-100.00,NW,309,2.0,8.0,97,0.00,,,0.14,85.000000,,2013-03-16 20:02:00,
2013-03-16 10:12:00,51.0,50.0,-100.00,NW,309,2.0,8.0,97,0.00,,,0.14,85.000000,,2013-03-16 20:12:00,
2013-03-16 10:21:00,51.0,50.0,-100.00,NW,309,2.0,8.0,97,0.00,,,0.14,85.000000,,2013-03-16 20:21:00,
2013-03-16 10:22:00,52.0,51.0,-100.00,NW,310,2.0,7.0,97,0.00,,,0.14,165.000000,,2013-03-16 20:22:00,
2013-03-16 10:42:00,52.0,51.0,-100.00,NW,310,2.0,7.0,97,0.00,,,0.14,165.000000,,2013-03-16 20:42:00,
2013-03-16 10:52:00,52.0,51.0,-100.00,NW,310,2.0,7.0,97,0.00,,,0.14,165.000000,,2013-03-16 20:52:00,
2013-03-16 11:02:00,52.0,51.0,-100.00,NW,310,2.0,7.0,97,0.00,,,0.14,165.000000,,2013-03-16 21:02:00,
2013-03-16 11:11:00,52.0,51.0,-100.00,NW,310,2.0,7.0,97,0.00,,,0.14,165.000000,,2013-03-16 21:11:00,
2013-03-16 11:22:00,53.0,51.0,-100.00,NW,305,2.0,8.0,93,0.00,,,0.14,414.000000,,2013-03-16 21:22:00,
2013-03-16 11:43:00,53.0,51.0,-100.00,NW,305,2.0,8.0,93,0.00,,,0.14,414.000000,,2013-03-16 21:43:00,
2013-03-16 11:52:00,53.0,51.0,-100.00,NW,305,2.0,8.0,93,0.00,,,0.14,414.000000,,2013-03-16 21:52:00,
2013-03-16 12:03:00,53.0,51.0,-100.00,NW,305,2.0,8.0,93,0.00,,,0.14,414.000000,,2013-03-16 22:03:00,
2013-03-16 12:12:00,53.0,51.0,-100.00,NW,305,2.0,8.0,93,0.00,,,0.14,414.000000,,2013-03-16 22:12:00,
2013-03-16 12:22:00,54.0,52.0,-100.00,NW,310,2.0,7.0,92,0.00,,,0.14,345.000000,,2013-03-16 22:22:00,
2013-03-16 12:42:00,54.0,52.0,-100.00,NW,310,2.0,7.0,92,0.00,,,0.14,345.000000,,2013-03-16 22:42:00,
2013-03-16 12:52:00,54.0,52.0,-100.00,NW,310,2.0,7.0,92,0.00,,,0.14,345.000000,,2013-03-16 22:52:00,
2013-03-16 13:02:00,54.0,52.0,-100.00,NW,310,2.0,7.0,92,0.00,,,0.14,345.000000,,2013-03-16 23:02:00,
2013-03-16 13:12:00,54.0,52.0,-100.00,NW,310,2.0,7.0,92,0.00,,,0.14,345.000000,,2013-03-16 23:12:00,
2013-03-16 13:42:00,54.0,50.0,-100.00,WNW,299,2.0,6.0,87,0.00,,,0.14,327.000000,,2013-03-16 23:42:00,
2013-03-16 13:52:00,54.0,50.0,-100.00,WNW,299,2.0,6.0,87,0.00,,,0.14,327.000000,,2013-03-16 23:52:00,
2013-03-16 14:01:00,54.0,50.0,-100.00,WNW,299,2.0,6.0,87,0.00,,,0.14,327.000000,,2013-03-17 00:01:00,
2013-03-16 14:12:00,54.0,50.0,-100.00,WNW,299,2.0,6.0,87,0.00,,,0.14,327.000000,,2013-03-17 00:12:00,
2013-03-16 14:21:00,54.0,50.0,-100.00,WNW,299,2.0,6.0,87,0.00,,,0.14,327.000000,,2013-03-17 00:21:00,
2013-03-16 14:43:00,54.0,49.0,-100.00,WNW,301,1.0,5.0,83,0.00,,,0.14,293.000000,,2013-03-17 00:43:00,
2013-03-16 14:52:00,54.0,49.0,-100.00,WNW,301,1.0,5.0,83,0.00,,,0.14,293.000000,,2013-03-17 00:52:00,
2013-03-16 15:02:00,54.0,49.0,-100.00,WNW,301,1.0,5.0,83,0.00,,,0.14,293.000000,,2013-03-17 01:02:00,
2013-03-16 15:12:00,54.0,49.0,-100.00,WNW,301,1.0,5.0,83,0.00,,,0.14,293.000000,,2013-03-17 01:12:00,
2013-03-16 15:21:00,54.0,49.0,-100.00,WNW,301,1.0,5.0,83,0.00,,,0.14,293.000000,,2013-03-17 01:21:00,
2013-03-16 15:43:00,55.0,52.0,-100.00,WNW,301,1.0,5.0,89,0.00,,,0.14,287.000000,,2013-03-17 01:43:00,
2013-03-16 15:53:00,55.0,52.0,-100.00,WNW,301,1.0,5.0,89,0.00,,,0.14,287.000000,,2013-03-17 01:53:00,
2013-03-16 16:02:00,55.0,52.0,-100.00,WNW,301,1.0,5.0,89,0.00,,,0.14,287.000000,,2013-03-17 02:02:00,
2013-03-16 16:12:00,55.0,52.0,-100.00,WNW,301,1.0,5.0,89,0.00,,,0.14,287.000000,,2013-03-17 02:12:00,
2013-03-16 16:21:00,55.0,52.0,-100.00,WNW,301,1.0,5.0,89,0.00,,,0.14,287.000000,,2013-03-17 02:21:00,
2013-03-16 16:43:00,54.0,51.0,-100.00,WNW,284,1.0,5.0,89,0.00,,,0.14,241.000000,,2013-03-17 02:43:00,
2013-03-16 16:52:00,54.0,51.0,-100.00,WNW,284,1.0,5.0,89,0.00,,,0.14,241.000000,,2013-03-17 02:52:00,
2013-03-16 17:02:00,54.0,51.0,-100.00,WNW,284,1.0,5.0,89,0.00,,,0.14,241.000000,,2013-03-17 03:02:00,
2013-03-16 17:12:00,54.0,51.0,-100.00,WNW,284,1.0,5.0,89,0.00,,,0.14,241.000000,,2013-03-17 03:12:00,
2013-03-16 17:21:00,54.0,51.0,-100.00,WNW,284,1.0,5.0,89,0.00,,,0.14,241.000000,,2013-03-17 03:21:00,
2013-03-16 17:22:00,53.0,52.0,-100.00,NW,315,1.0,9.0,96,0.12,,,0.26,78.000000,,2013-03-17 03:22:00,
2013-03-16 17:43:00,53.0,52.0,-100.00,NW,315,1.0,9.0,96,0.12,,,0.26,78.000000,,2013-03-17 03:43:00,
2013-03-16 17:53:00,53.0,52.0,-100.00,NW,315,1.0,9.0,96,0.12,,,0.26,78.000000,,2013-03-17 03:53:00,
2013-03-16 18:02:00,53.0,52.0,-100.00,NW,315,1.0,9.0,96,0.12,,,0.26,78.000000,,2013-03-17 04:02:00,
2013-03-16 18:12:00,53.0,52.0,-100.00,NW,315,1.0,9.0,96,0.12,,,0.26,78.000000,,2013-03-17 04:12:00,
2013-03-16 18:43:00,51.0,50.0,-100.00,WNW,297,2.0,7.0,96,0.00,,,0.26,47.000000,,2013-03-17 04:43:00,
2013-03-16 18:53:00,51.0,50.0,-100.00,WNW,297,2.0,7.0,96,0.00,,,0.26,47.000000,,2013-03-17 04:53:00,
2013-03-16 19:02:00,51.0,50.0,-100.00,WNW,297,2.0,7.0,96,0.00,,,0.26,47.000000,,2013-03-17 05:02:00,
2013-03-16 19:12:00,51.0,50.0,-100.00,WNW,297,2.0,7.0,96,0.00,,,0.26,47.000000,,2013-03-17 05:12:00,
2013-03-16 19:21:00,51.0,50.0,-100.00,WNW,297,2.0,7.0,96,0.00,,,0.26,47.000000,,2013-03-17 05:21:00,
2013-03-16 19:42:00,50.0,49.0,-100.00,WNW,286,1.0,5.0,96,0.00,,,0.26,9.000000,,2013-03-17 05:42:00,
2013-03-16 19:52:00,50.0,49.0,-100.00,WNW,286,1.0,5.0,96,0.00,,,0.26,9.000000,,2013-03-17 05:52:00,
2013-03-16 20:02:00,50.0,49.0,-100.00,WNW,286,1.0,5.0,96,0.00,,,0.26,9.000000,,2013-03-17 06:02:00,
2013-03-16 20:12:00,50.0,49.0,-100.00,WNW,286,1.0,5.0,96,0.00,,,0.26,9.000000,,2013-03-17 06:12:00,
2013-03-16 20:21:00,50.0,49.0,-100.00,WNW,286,1.0,5.0,96,0.00,,,0.26,9.000000,,2013-03-17 06:21:00,
2013-03-16 20:42:00,50.0,49.0,-100.00,West,266,1.0,4.0,96,0.00,,,0.26,0.000000,,2013-03-17 06:42:00,
2013-03-16 20:52:00,50.0,49.0,-100.00,West,266,1.0,4.0,96,0.00,,,0.26,0.000000,,2013-03-17 06:52:00,
2013-03-16 21:02:00,50.0,49.0,-100.00,West,266,1.0,4.0,96,0.00,,,0.26,0.000000,,2013-03-17 07:02:00,
2013-03-16 21:12:00,50.0,49.0,-100.00,West,266,1.0,4.0,96,0.00,,,0.26,0.000000,,2013-03-17 07:12:00,
2013-03-16 21:21:00,50.0,49.0,-100.00,West,266,1.0,4.0,96,0.00,,,0.26,0.000000,,2013-03-17 07:21:00,
2013-03-16 21:42:00,48.0,47.0,-100.00,WSW,258,0.0,3.0,96,0.00,,,0.26,0.000000,,2013-03-17 07:42:00,
2013-03-16 21:52:00,48.0,47.0,-100.00,WSW,258,0.0,3.0,96,0.00,,,0.26,0.000000,,2013-03-17 07:52:00,
2013-03-16 22:02:00,48.0,47.0,-100.00,WSW,258,0.0,3.0,96,0.00,,,0.26,0.000000,,2013-03-17 08:02:00,
2013-03-16 22:12:00,48.0,47.0,-100.00,WSW,258,0.0,3.0,96,0.00,,,0.26,0.000000,,2013-03-17 08:12:00,
2013-03-16 22:21:00,48.0,47.0,-100.00,WSW,258,0.0,3.0,96,0.00,,,0.26,0.000000,,2013-03-17 08:21:00,
2013-03-16 22:42:00,49.0,48.0,-100.00,West,281,1.0,4.0,96,0.00,,,0.26,0.000000,,2013-03-17 08:42:00,
2013-03-16 22:52:00,49.0,48.0,-100.00,West,281,1.0,4.0,96,0.00,,,0.26,0.000000,,2013-03-17 08:52:00,
2013-03-16 23:02:00,49.0,48.0,-100.00,West,281,1.0,4.0,96,0.00,,,0.26,0.000000,,2013-03-17 09:02:00,
2013-03-16 23:12:00,49.0,48.0,-100.00,West,281,1.0,4.0,96,0.00,,,0.26,0.000000,,2013-03-17 09:12:00,
2013-03-16 23:21:00,49.0,48.0,-100.00,West,281,1.0,4.0,96,0.00,,,0.26,0.000000,,2013-03-17 09:21:00,
2013-03-16 23:22:00,50.0,49.0,-100.00,WNW,289,1.0,5.0,97,0.00,,,0.26,0.000000,,2013-03-17 09:22:00,
2013-03-16 23:43:00,50.0,49.0,-100.00,WNW,289,1.0,5.0,97,0.00,,,0.26,0.000000,,2013-03-17 09:43:00,
2013-03-16 23:53:00,50.0,49.0,-100.00,WNW,289,1.0,5.0,97,0.00,,,0.26,0.000000,,2013-03-17 09:53:00,